カタログに戻る

KUIPER-00241

運用中通信LEO
NORAD 67149·PAYLOAD·🇺🇸 United States

打ち上げ Dec 15, 2025 から Cape Canaveral Space Force Station

Loading…

次のパス (今後24時間)

TLE

最新Source: CelesTrak SupGP

元期: Sep 14, 2026, 19:30 UTC

1 67149C 25301S   26257.81255787  .00002903  00000+0  37995-3 0  2579
2 67149  51.9031 319.3673 0000449  80.7112 170.0682 14.79929891    10

AllMySatでKUIPER-00241をリアルタイム追跡

Download on the App Store